Regional Weather Roundup
Issued by NWS Raleigh/Durham, NC

Home | Current Version | Previous Version | Text Only | Print | Product List | Glossary On
Versions: 1 2 3 4 5 6 7 8 9 10 11 12 13 14 15 16 17 18 19 20 21 22 23 24 25 26 27 28 29 30 31 32 33 34 35
000
ASUS42 KRAH 231410
RWRRAH
NORTH CAROLINA WEATHER ROUNDUP
NATIONAL WEATHER SERVICE RALEIGH NC
1000 AM EDT THU OCT 23 2014

NOTE: "FAIR" INDICATES FEW OR NO CLOUDS BELOW 12,000 FEET WITH NO
SIGNIFICANT WEATHER AND/OR OBSTRUCTIONS TO VISIBILITY.

NCZ001-053-055-056-065-067-231500-
WESTERN NORTH CAROLINA

CITY           SKY/WX    TMP DP  RH WIND       PRES   REMARKS
ASHEVILLE      SUNNY     48  37  65 N23G30    30.15F
JEFFERSON      SUNNY     44  32  62 NW13G20   30.12S
MORGANTON      SUNNY     50  42  74 CALM      30.15R
HICKORY        SUNNY     52  39  61 NW8       30.09R
RUTHERFORDTON  SUNNY     51  40  67 NW8       30.12S
MOUNT AIRY     SUNNY     54  40  59 NW10G18   30.10R
BOONE          SUNNY     42  33  71 W16G24    30.14S
$$

NCZ021-022-025-041-071-084-088-231500-
CENTRAL NORTH CAROLINA

CITY           SKY/WX    TMP DP  RH WIND       PRES   REMARKS
CHARLOTTE      SUNNY     52  39  61 NW8       30.10R
GREENSBORO     SUNNY     54  40  59 NW8       30.05R
WINSTON-SALEM  SUNNY     55  38  52 NW14G21   30.08R
RALEIGH-DURHAM SUNNY     55  40  56 NW10G20   30.02S
FORT BRAGG     SUNNY     56  42  57 NW9       30.03S
FAYETTEVILLE   SUNNY     57  40  52 NW13G18   30.04R
BURLINGTON     SUNNY     56  39  53 N12G17    30.04S
LAURINBURG     SUNNY     55  42  61 N10       30.07R
$$

NCZ011-015-027-028-043-044-047-080-103-231500-
NORTHEASTERN NORTH CAROLINA

CITY           SKY/WX    TMP DP  RH WIND       PRES   REMARKS
ROCKY MT-WILSO SUNNY     56  43  61 NW14      30.00S
GREENVILLE     SUNNY     55  43  62 NW8       30.00S
WASHINGTON     SUNNY     55  43  66 NW8       29.98S
ELIZABETH CITY PTSUNNY   57  44  62 W21       29.91F
MANTEO         CLOUDY    55  44  68 NW15G28   29.91S
CAPE HATTERAS  SUNNY     56  46  69 NW15G30   29.93S
$$

NCZ078-087-090-091-093-098-101-231500-
SOUTHEASTERN NORTH CAROLINA

CITY           SKY/WX    TMP DP  RH WIND       PRES   REMARKS
LUMBERTON      SUNNY     56  42  59 NW7       30.05S
GOLDSBORO      SUNNY     55  47  75 NW1       29.99S
KINSTON        SUNNY     55  45  67 NW8       30.01S
KENANSVILLE    SUNNY     55  42  62 NW8       30.02S
NEW BERN       SUNNY     58  44  60 NW8       30.00S
CHERRY POINT   SUNNY     58  43  57 NW12      30.00S
BEAUFORT       SUNNY     58  46  64 N16       29.98S
JACKSONVILLE   SUNNY     57  43  59 NW12      30.00S
WILMINGTON     SUNNY     56  43  61 N13       30.03S
$$




USA.gov is the U.S. government's official web portal to all federal, state and local government web resources and services.